This demonstration page uses our WeatherBlox Daily Observations layout. Learn more.

Left ArrowRight Arrow

Hourly Observations for July 14, 2016

Temp ( °F °C ) Dew Point ( °F °C ) Humidity (%) Winds ( mph kmh ) Pressure ( in mb ) Visibility ( mi km ) Precip ( " mm )
12:53 am 00:53 Clear 79 26.1 67 19.4 67 67 S 6 9 30.09 1019 10 16 0.00 0.00
1:53 am 01:53 Clear 77 25 68 20 74 74 SSW 5 7 30.07 1018 10 16 0.00 0.00
2:53 am 02:53 Clear 75 23.9 68 20 79 79 WSW 8 13 30.06 1018 10 16 0.00 0.00
3:53 am 03:53 Clear 74 23.3 68 20 82 82 S 5 7 30.05 1018 10 16 0.00 0.00
4:53 am 04:53 Clear 73 22.8 68 20 84 84 Calm 30.05 1018 10 16 0.00 0.00
5:53 am 05:53 Clear 72 22.2 68 20 87 87 SSW 5 7 30.06 1018 10 16 0.00 0.00
6:53 am 06:53 Sunny 71 21.7 67 19.4 87 87 Calm 30.07 1018 10 16 0.00 0.00
7:53 am 07:53 Sunny 73 22.8 67 19.4 81 81 Calm 30.08 1019 10 16 0.00 0.00
8:53 am 08:53 Sunny 77 25 68 20 74 74 Calm 30.09 1019 10 16 0.00 0.00
9:53 am 09:53 Sunny 82 27.8 67 19.4 60 60 WNW 3 6 30.10 1019 10 16 0.00 0.00
10:53 am 10:53 Sunny 85 29.4 67 19.4 55 55 WNW 6 9 30.10 1019 10 16 0.00 0.00
11:53 am 11:53 Sunny 88 31.1 67 19.4 50 50 Calm 30.09 1019 10 16 0.00 0.00
12:53 pm 12:53 Sunny 90 32.2 67 19.4 47 47 SSE 3 6 30.07 1018 10 16 0.00 0.00
1:53 pm 13:53 Mostly Sunny 92 33.3 67 19.4 44 44 Calm 30.04 1017 10 16 0.00 0.00
2:53 pm 14:53 Partly Cloudy 92 33.3 65 18.3 41 41 WSW 8 13 30.01 1016 10 16 0.00 0.00
3:53 pm 15:53 Mostly Sunny 94 34.4 64 17.8 37 37 VRB 7 11 29.99 1016 10 16 0.00 0.00
4:53 pm 16:53 Mostly Cloudy 94 34.4 65 18.3 38 38 VRB 6 9 29.98 1015 10 16 0.00 0.00
5:53 pm 17:53 Mostly Sunny 93 33.9 64 17.8 38 38 SSW 7 11 29.98 1015 10 16 0.00 0.00
6:53 pm 18:53 Sunny 93 33.9 64 17.8 38 38 W 5 7 29.96 1015 10 16 0.00 0.00
7:53 pm 19:53 Mostly Cloudy 92 33.3 66 18.9 43 43 SW 6 9 29.97 1015 10 16 0.00 0.00
8:31 pm 20:31 Sunny with Nearby Thunderstorms 89 31.7 66 18.9 47 47 SW 6 9 29.97 1015 10 16 0.00 0.00
8:40 pm 20:40 Partly Cloudy with Nearby Thunderstorms 90 32 66 19 46 46 W 5 7 29.97 1015 10 16 0.00 0.00
8:53 pm 20:53 Mostly Cloudy with Nearby Thunderstorms 86 30 65 18.3 49 49 NNW 15 24 29.99 1016 10 16 0.00 0.00
9:01 pm 21:01 Mostly Cloudy 85 29.4 65 18.3 51 51 NW 9 15 30.00 1016 10 16 0.00 0.00
9:14 pm 21:14 Mostly Cloudy with Nearby Thunderstorms 82 28 66 19 58 58 NW 8 13 30.00 1016 10 16 0.00 0.00
9:21 pm 21:21 Mostly Cloudy with Thunderstorms 81 27.2 68 20 65 65 W 7 11 30.00 1016 10 16 0.00 0.03
9:42 pm 21:42 Partly Cloudy 82 28 66 19 58 58 S 6 9 30.00 1016 10 16 0.00 0.00
9:53 pm 21:53 Mostly Clear 79 26.1 69 20.6 72 72 ENE 5 7 29.98 1015 10 16 0.00 0.03
10:53 pm 22:53 Clear 77 25 71 21.7 82 82 WNW 5 7 30.01 1016 10 16 0.00 0.00
11:53 pm 23:53 Mostly Clear 79 26.1 68 20 69 69 WSW 5 7 30.04 1017 10 16 0.00 0.00

Powered by AerisWeather